Location: La Trinit�
(48.1620°N, 3.4512°W)
Time: 15:52:32
(UTC+00:00)

Cosmos 1833 Rocket - Pass Details

Date: 08 May 2021
Orbit: 831 x 841 km, 71.0° (Epoch: 24 June)

Event Time Altitude Azimuth Distance (km) Brightness Sun altitude
Rises 21:45:16 0° 332° (NNW) 3,406 7.6 -16.9°
Reaches altitude 10° 21:47:43 10° 334° (NNW) 2,468 6.4 -17.2°
Maximum altitude 21:53:24 82° 61° (ENE) 855 2.7 -17.7°
Enters shadow 21:56:12 31° 147° (SSE) 1,430 3.3 -18.0°
